Back to catalog

SL-8 R/B

AlivePO
NORAD 23180·ROCKET BODY·🇷🇺 Russia

Launched Jul 14, 1994 from Plesetsk Cosmodrome

Loading…

Next Passes (next 24 hours)

TLE

FreshSource: Space-Track

Epoch: Sep 14, 2026, 14:26 UTC

1 23180U 94041B   26257.60195057  .00000016  00000-0  38511-6 0  9998
2 23180  82.9449 298.1249 0030078 114.9749  49.2034 13.78308681617528

Track SL-8 R/B in real time with AllMySat

Download on the App Store